• In Uzbekistan
  • List of Countries
  • For 7 days
  • Water Temperature
  • Satellite Maps
  • Weather Map
  • Weather Widgets
  • user-avatar
    Login

    Hourly Weather Prymiske (Radyans'ka Ukraina)

    Today, 26 May, Saturday

    Time Temperature Precipitation Wind Pressure Humidity
    00:00 +19°C° 0 mm 6 mps 753 mmHg 86%
    01:00 +19°C° 0 mm 6 mps 754 mmHg 86%
    02:00 +19°C° 0 mm 5 mps 754 mmHg 89%
    03:00 +19°C° 0.3 mm 6 mps 754 mmHg 89%
    04:00 +18°C° 0.3 mm 8 mps 754 mmHg 89%
    05:00 +18°C° 0.3 mm 9 mps 755 mmHg 89%
    06:00 +18°C° 0.1 mm 9 mps 755 mmHg 85%
    07:00 +17°C° 0.1 mm 10 mps 756 mmHg 81%
    08:00 +17°C° 0 mm 10 mps 757 mmHg 77%
    09:00 +18°C° 0 mm 10 mps 757 mmHg 71%
    10:00 +18°C° 0 mm 10 mps 758 mmHg 64%
    11:00 +19°C° 0 mm 11 mps 759 mmHg 58%
    12:00 +19°C° 0 mm 10 mps 759 mmHg 56%
    13:00 +19°C° 0 mm 10 mps 759 mmHg 54%
    14:00 +19°C° 0 mm 10 mps 759 mmHg 52%
    15:00 +19°C° 0 mm 10 mps 760 mmHg 53%
    16:00 +18°C° 0 mm 10 mps 760 mmHg 54%
    17:00 +18°C° 0 mm 9 mps 760 mmHg 55%
    18:00 +17°C° 0 mm 9 mps 760 mmHg 56%
    19:00 +15°C° 0 mm 9 mps 761 mmHg 58%
    20:00 +13°C° 0 mm 9 mps 761 mmHg 59%
    21:00 +13°C° 0 mm 9 mps 761 mmHg 58%
    22:00 +13°C° 0 mm 9 mps 761 mmHg 57%
    23:00 +12°C° 0 mm 10 mps 762 mmHg 56%

    Tomorrow, 27 May, Sunday

    Time Temperature Precipitation Wind Pressure Humidity
    00:00 +12°C° 0 mm 10 mps 762 mmHg 56%
    01:00 +12°C° 0 mm 10 mps 762 mmHg 56%
    02:00 +11°C° 0 mm 10 mps 762 mmHg 56%
    03:00 +11°C° 0 mm 10 mps 762 mmHg 58%
    04:00 +11°C° 0 mm 10 mps 762 mmHg 60%
    05:00 +9°C° 0 mm 10 mps 762 mmHg 62%
    06:00 +12°C° 0 mm 10 mps 762 mmHg 60%
    07:00 +13°C° 0 mm 10 mps 762 mmHg 57%
    08:00 +14°C° 0 mm 11 mps 762 mmHg 55%
    09:00 +16°C° 0 mm 10 mps 762 mmHg 53%
    10:00 +17°C° 0 mm 10 mps 762 mmHg 51%
    11:00 +18°C° 0 mm 10 mps 762 mmHg 49%
    12:00 +18°C° 0 mm 10 mps 761 mmHg 48%
    13:00 +19°C° 0 mm 9 mps 761 mmHg 48%
    14:00 +19°C° 0 mm 9 mps 761 mmHg 48%
    15:00 +19°C° 0 mm 9 mps 760 mmHg 50%
    16:00 +20°C° 0 mm 8 mps 760 mmHg 52%
    17:00 +18°C° 0 mm 8 mps 760 mmHg 55%
    18:00 +17°C° 0 mm 7 mps 760 mmHg 58%
    19:00 +16°C° 0 mm 7 mps 760 mmHg 62%
    20:00 +15°C° 0 mm 6 mps 760 mmHg 65%
    21:00 +14°C° 0 mm 7 mps 760 mmHg 65%
    22:00 +14°C° 0 mm 7 mps 760 mmHg 64%
    23:00 +12°C° 0 mm 7 mps 759 mmHg 63%

    Day after tomorrow, 28 May, Monday

    Time Temperature Precipitation Wind Pressure Humidity
    00:00 +12°C° 0 mm 7 mps 759 mmHg 62%
    01:00 +11°C° 0 mm 7 mps 759 mmHg 61%
    02:00 +11°C° 0 mm 7 mps 759 mmHg 59%
    03:00 +11°C° 0 mm 7 mps 759 mmHg 60%
    04:00 +11°C° 0 mm 7 mps 759 mmHg 60%
    05:00 +11°C° 0 mm 7 mps 759 mmHg 61%
    06:00 +12°C° 0 mm 7 mps 760 mmHg 57%
    07:00 +15°C° 0 mm 8 mps 760 mmHg 53%
    08:00 +17°C° 0 mm 8 mps 760 mmHg 49%
    09:00 +18°C° 0 mm 8 mps 760 mmHg 47%
    10:00 +20°C° 0 mm 8 mps 760 mmHg 45%
    11:00 +21°C° 0 mm 8 mps 760 mmHg 43%
    12:00 +22°C° 0 mm 7 mps 760 mmHg 43%
    13:00 +22°C° 0 mm 7 mps 760 mmHg 43%
    14:00 +23°C° 0 mm 7 mps 760 mmHg 43%
    15:00 +23°C° 0 mm 6 mps 760 mmHg 45%
    16:00 +23°C° 0 mm 6 mps 760 mmHg 48%
    17:00 +22°C° 0 mm 6 mps 760 mmHg 51%
    18:00 +21°C° 0 mm 5 mps 760 mmHg 56%
    19:00 +19°C° 0 mm 5 mps 760 mmHg 61%
    20:00 +17°C° 0 mm 5 mps 760 mmHg 66%
    21:00 +16°C° 0 mm 5 mps 760 mmHg 68%
    22:00 +16°C° 0 mm 6 mps 761 mmHg 70%
    23:00 +16°C° 0 mm 6 mps 761 mmHg 72%

    29 May, Tuesday

    Time Temperature Precipitation Wind Pressure Humidity
    00:00 +16°C° 0 mm 7 mps 761 mmHg 73%
    01:00 +15°C° 0 mm 7 mps 761 mmHg 74%
    02:00 +15°C° 0 mm 8 mps 761 mmHg 75%
    03:00 +13°C° 0 mm 8 mps 761 mmHg 72%
    04:00 +13°C° 0 mm 8 mps 762 mmHg 70%
    05:00 +12°C° 0 mm 9 mps 762 mmHg 67%
    06:00 +13°C° 0 mm 9 mps 762 mmHg 63%
    07:00 +16°C° 0 mm 9 mps 762 mmHg 59%
    08:00 +17°C° 0 mm 9 mps 762 mmHg 55%
    09:00 +18°C° 0 mm 9 mps 762 mmHg 53%
    10:00 +18°C° 0 mm 9 mps 762 mmHg 50%
    11:00 +19°C° 0 mm 9 mps 762 mmHg 47%
    12:00 +21°C° 0 mm 9 mps 761 mmHg 46%
    13:00 +21°C° 0 mm 9 mps 761 mmHg 46%
    14:00 +21°C° 0 mm 9 mps 761 mmHg 46%
    15:00 +21°C° 0 mm 9 mps 761 mmHg 48%
    16:00 +19°C° 0 mm 9 mps 760 mmHg 50%
    17:00 +20°C° 0 mm 8 mps 760 mmHg 52%
    18:00 +18°C° 0 mm 8 mps 760 mmHg 55%
    19:00 +16°C° 0 mm 8 mps 760 mmHg 58%
    20:00 +15°C° 0 mm 7 mps 760 mmHg 61%
    21:00 +15°C° 0 mm 8 mps 760 mmHg 60%
    22:00 +13°C° 0 mm 8 mps 760 mmHg 59%
    23:00 +13°C° 0 mm 8 mps 760 mmHg 59%

    30 May, Wednesday

    Time Temperature Precipitation Wind Pressure Humidity
    00:00 +12°C° 0 mm 8 mps 759 mmHg 57%
    01:00 +12°C° 0 mm 8 mps 759 mmHg 56%
    02:00 +11°C° 0 mm 8 mps 759 mmHg 55%
    03:00 +11°C° 0 mm 8 mps 758 mmHg 56%
    04:00 +11°C° 0 mm 8 mps 758 mmHg 57%
    05:00 +11°C° 0 mm 8 mps 758 mmHg 57%
    06:00 +13°C° 0 mm 8 mps 758 mmHg 54%
    07:00 +16°C° 0 mm 8 mps 758 mmHg 50%
    08:00 +17°C° 0 mm 8 mps 758 mmHg 46%
    09:00 +18°C° 0 mm 8 mps 758 mmHg 44%
    10:00 +20°C° 0 mm 8 mps 757 mmHg 42%
    11:00 +21°C° 0 mm 8 mps 757 mmHg 40%
    12:00 +22°C° 0 mm 7 mps 757 mmHg 40%
    13:00 +22°C° 0 mm 7 mps 756 mmHg 41%
    14:00 +23°C° 0 mm 7 mps 756 mmHg 41%
    15:00 +23°C° 0 mm 6 mps 756 mmHg 43%
    16:00 +22°C° 0 mm 6 mps 755 mmHg 45%
    17:00 +22°C° 0 mm 5 mps 755 mmHg 48%
    18:00 +20°C° 0 mm 5 mps 755 mmHg 52%
    19:00 +19°C° 0 mm 4 mps 755 mmHg 57%
    20:00 +17°C° 0 mm 4 mps 754 mmHg 61%
    21:00 +17°C° 0 mm 4 mps 754 mmHg 62%
    22:00 +15°C° 0 mm 4 mps 754 mmHg 62%
    23:00 +15°C° 0 mm 4 mps 754 mmHg 62%

    31 May, Thursday

    Time Temperature Precipitation Wind Pressure Humidity
    00:00 +14°C° 0 mm 4 mps 753 mmHg 63%
    01:00 +14°C° 0 mm 4 mps 753 mmHg 63%
    02:00 +14°C° 0 mm 4 mps 753 mmHg 63%
    03:00 +14°C° 0 mm 4 mps 753 mmHg 64%
    04:00 +14°C° 0 mm 4 mps 753 mmHg 66%
    05:00 +14°C° 0 mm 4 mps 753 mmHg 67%
    06:00 +17°C° 0 mm 4 mps 753 mmHg 62%
    07:00 +19°C° 0 mm 4 mps 753 mmHg 56%
    08:00 +21°C° 0 mm 3 mps 753 mmHg 51%
    09:00 +24°C° 0 mm 3 mps 752 mmHg 48%
    10:00 +25°C° 0 mm 3 mps 752 mmHg 46%
    11:00 +26°C° 0 mm 2 mps 752 mmHg 43%
    12:00 +26°C° 0 mm 2 mps 752 mmHg 42%
    13:00 +27°C° 0 mm 2 mps 751 mmHg 41%
    14:00 +27°C° 0 mm 2 mps 751 mmHg 40%
    15:00 +27°C° 0 mm 3 mps 751 mmHg 43%
    16:00 +27°C° 0 mm 3 mps 751 mmHg 47%
    17:00 +26°C° 0 mm 3 mps 750 mmHg 50%
    18:00 +25°C° 0 mm 3 mps 750 mmHg 56%
    19:00 +22°C° 0 mm 3 mps 750 mmHg 62%
    20:00 +20°C° 0 mm 3 mps 750 mmHg 68%
    21:00 +20°C° 0 mm 4 mps 750 mmHg 71%
    22:00 +19°C° 0 mm 4 mps 751 mmHg 74%
    23:00 +19°C° 0 mm 4 mps 751 mmHg 77%
    Show more